This is the latest recevied weather packets stored in our database for station/object LU5DTF-WX. If no packets are shown the sender has not sent any weather packets the latest 10 day(s).
| Time | Temp. | Humidity | Pressure | Rain* | Wind** | Luminosity | Snow |
|---|---|---|---|---|---|---|---|
| 1788012903 | 15° C | 73% | 1013.2 hPa | 0 mm | - | - | - |
| 1788012603 | 15° C | 74% | 1013.3 hPa | 0 mm | - | - | - |
| 1788012303 | 14.44° C | 75% | 1013.3 hPa | 0 mm | - | - | - |
| 1788012003 | 13.89° C | 76% | 1013.4 hPa | 0 mm | - | - | - |
| 1788011703 | 13.89° C | 75% | 1013.5 hPa | 0 mm | - | - | - |
| 1788011403 | 13.89° C | 75% | 1013.6 hPa | 0 mm | - | - | - |
| 1788011103 | 14.44° C | 76% | 1013.7 hPa | 0 mm | - | - | - |
| 1788010803 | 13.89° C | 77% | 1013.8 hPa | 0 mm | - | - | - |
| 1788010503 | 13.33° C | 75% | 1013.8 hPa | 0 mm | - | - | - |
| 1788010203 | 14.44° C | 75% | 1013.9 hPa | 0 mm | - | - | - |
| 1788009903 | 14.44° C | 75% | 1014 hPa | 0 mm | - | - | - |
| 1788009603 | 13.89° C | 75% | 1014 hPa | 0 mm | - | - | - |
| 1788009303 | 13.33° C | 75% | 1014 hPa | 0 mm | - | - | - |
| 1788009003 | 13.33° C | 75% | 1014 hPa | 0 mm | - | - | - |
| 1788008703 | 13.33° C | 75% | 1014 hPa | 0 mm | - | - | - |
| 1788008403 | 13.33° C | 74% | 1014.2 hPa | 0 mm | - | - | - |
| 1788008103 | 13.89° C | 75% | 1014.1 hPa | 0 mm | - | - | - |
| 1788007803 | 13.33° C | 76% | 1014 hPa | 0 mm | - | - | - |
| 1788007503 | 13.33° C | 76% | 1013.9 hPa | 0 mm | - | - | - |
| 1788007203 | 12.78° C | 77% | 1013.8 hPa | 0 mm | - | - | - |
| 1788006903 | 12.78° C | 77% | 1013.7 hPa | 0 mm | - | - | - |
| 1788006603 | 12.22° C | 78% | 1013.8 hPa | 0 mm | - | - | - |
| 1788006303 | 12.22° C | 78% | 1013.7 hPa | 0 mm | - | - | - |
| 1788006003 | 11.67° C | 79% | 1013.8 hPa | 0 mm | - | - | - |
| 1788005703 | 11.67° C | 79% | 1013.5 hPa | 0 mm | - | - | - |
* Rain latest hour (hover to see other rain measurements)
** Current wind speed in m/s (hover to see current wind gust speed)